TRANSIT 18 DEB, 35416

Orbit data source: Space-Track

TRANSIT 18 DEB, 35416 is space debris in LEO originally from a launch on Sat, 02 Mar 1968 UTC launched from the Air Force Western Test Range (AFWTR). Debris objects in space refer to the collection of defunct objects orbiting the Earth. Examples of debris include non-operational satellites, rocket bodies, and fragments generated from explosions, collisions, or faulty payload assembly.

Loading next visibility...
Identifier
35416, 1968-012F
Orbit
LEO
Country
Flag of USUS
Related business
Manufacturer
Unknown
Mission
Spacecraft
Bus & Motor
Unknown
Mass
Unknown
Launch date (UTC)
1968-03-02 (58 years ago)
Launch vehicle
Unknown
Launch site
Air Force Western Test Range (AFWTR)
Object type
Payload
Rocket body
Debris
Shape & HBR
Unknown shape, 0.2 m
Radar Cross Section
Medium (>0.1 m² and <1 m²)

Expand to show TLE details & history
Last TLE update: 5 hours ago

TLE from 5 hours ago
0 TRANSIT 18 DEB
1 35416U 68012F   25308.50212110  .00000968  00000-0  12974-2 0  9994
2 35416  90.0193 272.9130 0064125 185.5476 300.5601 13.58588836824027
Epoch: 2025-11-04T12:03Z
TLE epoch observation values (Epoch: 2025-11-04T12:03:03.263Z)
Latitude
54.62243°
Longitude
-131.81178°
Altitude
1,025.956 km
Speed
7.356 km/s
True Right ascension
06h 11m 45s
True Declination
54° 27' 57"
Sunlit
Object was in full shadow at epoch
Visualization orbit readout
Latitude
Unknown
Longitude
Unknown
Altitude
Unknown
Speed
Unknown
Apparent Right ascension
Unknown
Apparent Declination
Unknown
Sunlit
N/A
Visualization observer readout
Local Sidereal Time
13:03:16
Azimuth
Unknown
Elevation
Unknown
Doppler factor
Unknown
Orbital elements
Apogee altitude
1,085.417 km
Perigee altitude
990.307 km
Semi-major axis
7,415.999 km
Eccentricity
0.00641
Inclination
90.0193°
RAAN
272.913°
Arg. of periapsis
185.5476°
True anomaly
299.92477°
Mean anomaly
300.5601°
Eccentric anomaly
300.2427°
Mean motion
3.39851 °/min
Orbital period
105.93 mins
BSTAR
0.0012974
Loading maneuver chart data...
Computing Atmospheric mass density...
Loading historical data...
Loading historical data...
Loading historical data...
Loading historical data...
Loading historical data...
Loading historical data...
Loading historical data...

Documentation

Showing up to 5 results
|